Location: Hains Lake
(37.8540°N, 99.8578°W)
Time: 11:49:14
(UTC+00:00)

Cosmos 1954 Rocket - Pass Details

Date: 11 December 2019
Orbit: 751 x 782 km, 74.0° (Epoch: 27 January)

Event Time Altitude Azimuth Distance (km) Brightness Sun altitude
Exits shadow 12:03:07 32° 317° (NW) 1,308 4.7 -19.4°
Maximum altitude 12:05:19 55° 256° (WSW) 934 4.1 -19.0°
Drops below altitude 10° 12:10:27 10° 180° (S) 2,323 6.7 -18.0°
Sets 12:12:52 0° 176° (S) 3,249 7.5 -17.6°
